Regional Weather Roundup
Issued by NWS Upton, NY

Current Version | Previous Version | Graphics & Text | Print | Product List | Glossary Off
Versions: 1 2 3 4 5 6 7 8 9 10 11 12 13 14 15 16 17 18 19 20 21 22 23 24 25 26 27 28 29 30
000 ASUS41 KOKX 250005 RWROKX REGIONAL WEATHER ROUNDUP NATIONAL WEATHER SERVICE NEW YORK NY 800 PM EDT WED AUG 24 2016 NOTE: "FAIR" INDICATES FEW OR NO CLOUDS BELOW 12,000 FEET WITH NO SIGNIFICANT WEATHER AND/OR OBSTRUCTIONS TO VISIBILITY. NYZ071-072-176-178-NJZ106-104-250100- NEW YORK CITY METRO AREA CITY SKY/WX TMP DP RH WIND PRES REMARKS Central Park NOT AVBL LaGuardia APRT PTCLDY 80 62 54 S12 30.16S Kennedy INTL PTCLDY 77 71 82 S16G24 30.18S Newark/Liberty PTCLDY 81 63 54 S9 30.15F Bronx Bot Gard N/A 75 63 64 SE8 30.19R Wall St Helipt CLEAR 81 64 57 S8 30.17F Teterboro CLEAR 79 61 53 S6 30.15S $$ NYZ177-179-078>081-250100- LONG ISLAND NEW YORK CITY SKY/WX TMP DP RH WIND PRES REMARKS Farmingdale CLEAR 76 64 66 S12 30.19R MacArthur/ISP PTCLDY 75 64 68 S8 30.19R Shirley NOT AVBL Riverhead NOT AVBL Westhampton CLEAR 72 65 78 S5 30.22R Southampton N/A 73 68 83 SW6 30.16S Bridgehampton N/A 72 64 78 CALM 30.19S East Hampton FAIR 71 66 83 SW3 30.20S Montauk N/A 73 67 81 S7 30.21R $$ NYZ052-065-067-250100- HUDSON VALLEY CITY SKY/WX TMP DP RH WIND PRES REMARKS White Plains CLEAR 75 61 61 S5 30.18S Newburgh CLEAR 79 64 61 W6 30.18S Montgomery CLEAR 73 65 75 CALM 30.15F Poughkeepsie CLEAR 78 64 61 CALM 30.14S Albany PTCLDY 80 60 50 S8 30.11F $$ NJZ001-105-106-008-010-013-015-019>022-104-250100- NEW JERSEY CITY SKY/WX TMP DP RH WIND PRES REMARKS Newark/Liberty PTCLDY 81 63 54 S9 30.15F Teterboro CLEAR 79 61 53 S6 30.15S Caldwell CLEAR 80 60 50 CALM 30.16F Morristown NOT AVBL Somerville CLEAR 72 64 76 CALM 30.14F Linden FAIR 82 57 43 SW5 30.17F Sussex CLEAR 71 66 84 CALM 30.17F Abdover N/A 70 65 84 CALM 30.17F Trenton CLEAR 78 59 51 SW3 30.17S Millville CLEAR 72 63 73 CALM 30.21S Atlantic City CLEAR 75 58 55 S7 30.20S Wrightstown CLEAR 74 64 70 SW3 30.16R Toms River CLEAR 74 62 66 S6 30.20R Belmar CLEAR 75 63 66 S5 30.20R $$ PAZ047>061-062-071-250100- EASTERN PENNSYLVANIA CITY SKY/WX TMP DP RH WIND PRES REMARKS Philadelphia PTCLDY 79 64 60 S14 30.19R Allentown CLEAR 79 61 53 S5 30.17R Scranton CLEAR 76 62 62 VRB3 30.17R $$ CTZ002-004>006-009-010-012-RIZ004-006-007-MAZ004-011-015-250100- SOUTHERN NEW ENGLAND IN CT CITY SKY/WX TMP DP RH WIND PRES REMARKS Bradley INTL MOCLDY 79 60 52 S8 30.16S Hartford PTCLDY 80 61 52 S8 30.16R Danbury CLEAR 75 61 61 S9 30.18S Wtrbury/Oxford PTCLDY 72 59 64 S7 30.21F Bridgeport CLEAR 79 65 62 S12 30.17S Meriden CLEAR 76 60 57 S5 30.17S New Haven CLEAR 77 64 64 S9 30.18S Chester FAIR 73 63 68 S7 30.20S Groton CLEAR 73 66 78 SW7 30.18S Wilimantic CLOUDY 76 62 62 CALM 30.19R IN RI CITY SKY/WX TMP DP RH WIND PRES REMARKS Providence PTCLDY 74 60 61 SW7 30.19R Block Island CLEAR 72 66 81 SW10 30.21S Westerly CLEAR 75 63 66 SW8 30.20R IN MA CITY SKY/WX TMP DP RH WIND PRES REMARKS Boston CLOUDY 80 62 54 S12 30.15R Worcester CLOUDY 73 60 63 SW8 30.20R Westfield CLEAR 76 61 59 S3 30.15S Provincetown CLEAR 71 64 78 SW13 30.18R Nantucket CLEAR 70 67 90 SW9 30.21R $$ ANZ330-335-338-340-345-350-353-355-250100- COASTAL MARINE OBSERVATIONS STATION/POSITION TIME SKY/WX TEMP WIND PRES VSBY WAVE AIR SEA DIR/SP/G HT/PER (UTC) (F) (DEG/KT/KT) (MB) (MI) (FT/S) NY HARB ENTRANCE 2250 77 78 200/ 16/ 19 1021.6 3/ 4 20S FIRE ISLAND 2250 76 77 200/ 14/ 16 1022.1 2/11 GREAT SOUTH BAY 2300 76 80 210/ 12/ 16 N/A 23 SSW MONTAUK P 2250 76 75 220/ 12/ 14 1023.0 2/11 15 E BARNEGAT LI 2300 77 N/A 2/12 HUDSON CANYON 2250 76 79 1023.2 2/11 KINGS POINT 2300 78 77 1021.5 EXECUTION ROCKS 2300 78 190/ 10/ 14 N/A CENTRAL LI SOUND 2300 78 76 200/ 14/ 16 N/A 1 EASTERN LI SOUND 2300 73 69 200/ 8/ 10 N/A ROBBINS REEF 2300 77 1020.8 $$ >>>>>>>>>>>>>>>>>>>>>>>>>>>> KEY <<<<<<<<<<<<<<<<<<<<<<<<<<< > < > SKY/WX - Sky Condition/Present Weather < > TMP - Temperature in Fahrenheit < > DP - Dew Point in Fahrenheit < > RH - Relative Humidity in Percent < > WIND - Direction (from) and Speed in MPH < > PRES - Mean Sea Level Pressure (inches of Hg) < > WCI - Wind Chill Index < > VSB - VISIBILITY IN MILES < > HX - HEAT INDEX < > TC - TEMPERATURE IN CELSIUS < > VRB - VARIABLE WIND DIRECTION < > < >>>>>>>>>>>>>>>>>>>>>>>>>>>> KEY <<<<<<<<<<<<<<<<<<<<<<<<<<<

USA.gov is the U.S. government's official web portal to all federal, state and local government web resources and services.